sat.trackr.live / text

‹ back to catalog

STARLINK-5091

NORAD 54873 · 2022-177BF

PAYLOAD ACTIVE UNKNOWN

§ Identity

Operator
Country
US
Launch date
2022-12-28
Launch site
AFETR
Launch vehicle
Mass (kg)
RCS (m²)

Purposes: comms

External: N2YO · Heavens-Above · Gunter

§ Orbital elements

Epoch: 2026-05-25T03:44:00.125664Z

Period
94.27 min
Inclination
43.0024°
Eccentricity
0.0001059
Mean motion
15.27575517 rev/d
Perigee alt
482.3 km
Apogee alt
483.8 km
Semi-major
6,861.2 km
B*
7.5024e-6
RAAN
49.8514°
Arg perigee
252.1376°
Mean anomaly
107.9361°
Rev number
18,878

§ Raw data

STARLINK-50911 54873U 22177BF  26145.15555701 -.00000056  00000+0  75024-5 0  99972 54873  43.0024  49.8514 0001059 252.1376 107.9361 15.27575517188788

JSON: /api/v1/satellites/54873 · /tle

For live sub-satellite position, see the globe view (requires WebGL).

§ Visibility from observer

Set your observer location to see the next 7 days of passes ≥ 10°. The values pass through the URL so the page stays shareable.

No JS? Fill the form by hand. The geolocation button needs JavaScript.